Location: Bathurst
(33.4193°S, 149.5775°E)
Time: 01:07:01
(UTC+10:00)

X-37B - Visible Passes

Search period start: 30 September 2022 00:00
Search period end: 10 October 2022 01:00
Orbit: 330 x 340 km, 45.0° (Epoch: 02 September)

Date Brightness Start Highest point End Pass type
(mag) Time Alt. Az. Time Alt. Az. Time Alt. Az.
30 Sep 2.2 18:34:57 10° SSW 18:37:13 20° SSE 18:39:29 10° ESE visible
30 Sep 3.6 20:10:03 10° WSW 20:10:43 15° WSW 20:10:43 15° WSW visible
01 Oct 0.7 18:55:01 10° SW 18:57:50 49° SSE 18:59:16 24° E visible
02 Oct 1.1 20:15:29 10° WSW 20:18:15 45° NW 20:19:09 32° NNE visible
03 Oct 3.0 20:36:59 10° WNW 20:38:29 13° NW 20:39:09 13° NNW visible
05 Oct 3.2 19:42:23 10° WNW 19:43:56 14° NW 19:45:27 10° N visible
